Year,Month,Day,Hour,Minute,Value (Times are PST for temperature in C)
2010,04,02,00,00,4.30
2010,04,02,00,01,4.30
2010,04,02,00,02,4.30
2010,04,02,00,03,4.30
2010,04,02,00,04,4.30
2010,04,02,00,05,4.20
2010,04,02,00,06,4.20
2010,04,02,00,07,4.20
2010,04,02,00,08,4.20
2010,04,02,00,09,4.20
2010,04,02,00,10,4.20
2010,04,02,00,11,4.20
2010,04,02,00,12,4.20
2010,04,02,00,13,4.20
2010,04,02,00,14,4.20
2010,04,02,00,15,4.20
2010,04,02,00,16,4.20
2010,04,02,00,17,4.20
2010,04,02,00,18,4.20
2010,04,02,00,19,4.20
2010,04,02,00,20,4.20
2010,04,02,00,21,4.20
2010,04,02,00,22,4.10
2010,04,02,00,23,4.10
2010,04,02,00,24,4.10
2010,04,02,00,25,4.10
2010,04,02,00,26,4.10
2010,04,02,00,27,4.10
2010,04,02,00,28,4.10
2010,04,02,00,29,4.10
2010,04,02,00,30,4.10
2010,04,02,00,31,4.10
2010,04,02,00,32,4.10
2010,04,02,00,33,4.10
2010,04,02,00,34,4.10
2010,04,02,00,35,4.10
2010,04,02,00,36,4.10
2010,04,02,00,37,4.10
2010,04,02,00,38,4.10
2010,04,02,00,39,4.10
2010,04,02,00,40,4.10
2010,04,02,00,41,4.10
2010,04,02,00,42,4.10
2010,04,02,00,43,4.10
2010,04,02,00,44,4.10
2010,04,02,00,45,4.10
2010,04,02,00,46,4.10
2010,04,02,00,47,4.10
2010,04,02,00,48,4.10
2010,04,02,00,49,4.10
2010,04,02,00,50,4.10
2010,04,02,00,51,4.10
2010,04,02,00,52,4.10
2010,04,02,00,53,4.10
2010,04,02,00,54,4.10
2010,04,02,00,55,4.10
2010,04,02,00,56,4.10
2010,04,02,00,57,4.10
2010,04,02,00,58,4.20
2010,04,02,00,59,4.20
2010,04,02,01,00,4.20
2010,04,02,01,01,4.20
2010,04,02,01,02,4.20
2010,04,02,01,03,4.20
2010,04,02,01,04,4.20
2010,04,02,01,05,4.20
2010,04,02,01,06,4.20
2010,04,02,01,07,4.20
2010,04,02,01,08,4.20
2010,04,02,01,09,4.20
2010,04,02,01,10,4.20
2010,04,02,01,11,4.20
2010,04,02,01,12,4.20
2010,04,02,01,13,4.20
2010,04,02,01,14,4.20
2010,04,02,01,15,4.20
2010,04,02,01,16,4.20
2010,04,02,01,17,4.20
2010,04,02,01,18,4.20
2010,04,02,01,19,4.20
2010,04,02,01,20,4.20
2010,04,02,01,21,4.20
2010,04,02,01,22,4.20
2010,04,02,01,23,4.20
2010,04,02,01,24,4.20
2010,04,02,01,25,4.20
2010,04,02,01,26,4.20
2010,04,02,01,27,4.20
2010,04,02,01,28,4.20
2010,04,02,01,29,4.20
2010,04,02,01,30,4.20
2010,04,02,01,31,4.20
2010,04,02,01,32,4.20
2010,04,02,01,33,4.20
2010,04,02,01,34,4.20
2010,04,02,01,35,4.20
2010,04,02,01,36,4.20
2010,04,02,01,37,4.20
2010,04,02,01,38,4.20
2010,04,02,01,39,4.20
2010,04,02,01,40,4.20
2010,04,02,01,41,4.20
2010,04,02,01,42,4.20
2010,04,02,01,43,4.20
2010,04,02,01,44,4.20
2010,04,02,01,45,4.20
2010,04,02,01,46,4.20
2010,04,02,01,47,4.20
2010,04,02,01,48,4.20
2010,04,02,01,49,4.20
2010,04,02,01,50,4.20
2010,04,02,01,51,4.20
2010,04,02,01,52,4.20
2010,04,02,01,53,4.20
2010,04,02,01,54,4.20
2010,04,02,01,55,4.20
2010,04,02,01,56,4.20
2010,04,02,01,57,4.20
2010,04,02,01,58,4.20
2010,04,02,01,59,4.20
2010,04,02,02,00,4.20
2010,04,02,02,01,4.10
2010,04,02,02,02,4.10
2010,04,02,02,03,4.10
2010,04,02,02,04,4.10
2010,04,02,02,05,4.10
2010,04,02,02,06,4.10
2010,04,02,02,07,4.10
2010,04,02,02,08,4.10
2010,04,02,02,09,4.10
2010,04,02,02,10,4.10
2010,04,02,02,11,4.10
2010,04,02,02,12,4.10
2010,04,02,02,13,4.10
2010,04,02,02,14,4.10
2010,04,02,02,15,4.10
2010,04,02,02,16,4.10
2010,04,02,02,17,4.10
2010,04,02,02,18,4.10
2010,04,02,02,19,4.10
2010,04,02,02,20,4.10
2010,04,02,02,21,4.10
2010,04,02,02,22,4.10
2010,04,02,02,23,4.10
2010,04,02,02,24,4.20
2010,04,02,02,25,4.20
2010,04,02,02,26,4.20
2010,04,02,02,27,4.20
2010,04,02,02,28,4.20
2010,04,02,02,29,4.10
2010,04,02,02,30,4.10
2010,04,02,02,31,4.10
2010,04,02,02,32,4.10
2010,04,02,02,33,4.10
2010,04,02,02,34,4.10
2010,04,02,02,35,4.10
2010,04,02,02,36,4.10
2010,04,02,02,37,4.10
2010,04,02,02,38,4.10
2010,04,02,02,39,4.10
2010,04,02,02,40,4.10
2010,04,02,02,41,4.10
2010,04,02,02,42,4.00
2010,04,02,02,43,4.00
2010,04,02,02,44,4.00
2010,04,02,02,45,4.00
2010,04,02,02,46,4.00
2010,04,02,02,47,4.00
2010,04,02,02,48,4.00
2010,04,02,02,49,4.00
2010,04,02,02,50,4.00
2010,04,02,02,51,4.00
2010,04,02,02,52,4.00
2010,04,02,02,53,4.10
2010,04,02,02,54,4.10
2010,04,02,02,55,4.10
2010,04,02,02,56,4.10
2010,04,02,02,57,4.10
2010,04,02,02,58,4.10
2010,04,02,02,59,4.10
2010,04,02,03,00,4.10
2010,04,02,03,01,4.10
2010,04,02,03,02,4.10
2010,04,02,03,03,4.10
2010,04,02,03,04,4.10
2010,04,02,03,05,4.10
2010,04,02,03,06,4.20
2010,04,02,03,07,4.20
2010,04,02,03,08,4.20
2010,04,02,03,09,4.20
2010,04,02,03,10,4.20
2010,04,02,03,11,4.20
2010,04,02,03,12,4.20
2010,04,02,03,13,4.20
2010,04,02,03,14,4.20
2010,04,02,03,15,4.20
2010,04,02,03,16,4.20
2010,04,02,03,17,4.20
2010,04,02,03,18,4.20
2010,04,02,03,19,4.20
2010,04,02,03,20,4.20
2010,04,02,03,21,4.20
2010,04,02,03,22,4.20
2010,04,02,03,23,4.20
2010,04,02,03,24,4.20
2010,04,02,03,25,4.20
2010,04,02,03,26,4.20
2010,04,02,03,27,4.20
2010,04,02,03,28,4.20
2010,04,02,03,29,4.20
2010,04,02,03,30,4.20
2010,04,02,03,31,4.20
2010,04,02,03,32,4.20
2010,04,02,03,33,4.20
2010,04,02,03,34,4.20
2010,04,02,03,35,4.20
2010,04,02,03,36,4.20
2010,04,02,03,37,4.20
2010,04,02,03,38,4.10
2010,04,02,03,39,4.10
2010,04,02,03,40,4.10
2010,04,02,03,41,4.10
2010,04,02,03,42,4.10
2010,04,02,03,43,4.10
2010,04,02,03,44,4.10
2010,04,02,03,45,4.10
2010,04,02,03,46,4.10
2010,04,02,03,47,4.20
2010,04,02,03,48,4.20
2010,04,02,03,49,4.20
2010,04,02,03,50,4.20
2010,04,02,03,51,4.20
2010,04,02,03,52,4.20
2010,04,02,03,53,4.20
2010,04,02,03,54,4.20
2010,04,02,03,55,4.20
2010,04,02,03,56,4.20
2010,04,02,03,57,4.20
2010,04,02,03,58,4.20
2010,04,02,03,59,4.20
2010,04,02,04,00,4.20
2010,04,02,04,01,4.20
2010,04,02,04,02,4.20
2010,04,02,04,03,4.20
2010,04,02,04,04,4.20
2010,04,02,04,05,4.20
2010,04,02,04,06,4.20
2010,04,02,04,07,4.20
2010,04,02,04,08,4.20
2010,04,02,04,09,4.20
2010,04,02,04,10,4.20
2010,04,02,04,11,4.20
2010,04,02,04,12,4.20
2010,04,02,04,13,4.20
2010,04,02,04,14,4.20
2010,04,02,04,15,4.20
2010,04,02,04,16,4.20
2010,04,02,04,17,4.20
2010,04,02,04,18,4.10
2010,04,02,04,19,4.10
2010,04,02,04,20,4.10
2010,04,02,04,21,4.10
2010,04,02,04,22,4.10
2010,04,02,04,23,4.10
2010,04,02,04,24,4.10
2010,04,02,04,25,4.10
2010,04,02,04,26,4.10
2010,04,02,04,27,4.10
2010,04,02,04,28,4.10
2010,04,02,04,29,4.10
2010,04,02,04,30,4.10
2010,04,02,04,31,4.10
2010,04,02,04,32,4.10
2010,04,02,04,33,4.10
2010,04,02,04,34,4.10
2010,04,02,04,35,4.10
2010,04,02,04,36,4.10
2010,04,02,04,37,4.10
2010,04,02,04,38,4.10
2010,04,02,04,39,4.10
2010,04,02,04,40,4.10
2010,04,02,04,41,4.10
2010,04,02,04,42,4.10
2010,04,02,04,43,4.10
2010,04,02,04,44,4.10
2010,04,02,04,45,4.10
2010,04,02,04,46,4.10
2010,04,02,04,47,4.10
2010,04,02,04,48,4.10
2010,04,02,04,49,4.10
2010,04,02,04,50,4.10
2010,04,02,04,51,4.10
2010,04,02,04,52,4.10
2010,04,02,04,53,4.10
2010,04,02,04,54,4.10
2010,04,02,04,55,4.10
2010,04,02,04,56,4.10
2010,04,02,04,57,4.10
2010,04,02,04,58,4.10
2010,04,02,04,59,4.10
2010,04,02,05,00,4.10
2010,04,02,05,01,4.10
2010,04,02,05,02,4.10
2010,04,02,05,03,4.10
2010,04,02,05,04,4.10
2010,04,02,05,05,4.10
2010,04,02,05,06,4.10
2010,04,02,05,07,4.10
2010,04,02,05,08,4.10
2010,04,02,05,09,4.10
2010,04,02,05,10,4.10
2010,04,02,05,11,4.10
2010,04,02,05,12,4.10
2010,04,02,05,13,4.10
2010,04,02,05,14,4.10
2010,04,02,05,15,4.10
2010,04,02,05,16,4.10
2010,04,02,05,17,4.10
2010,04,02,05,18,4.10
2010,04,02,05,19,4.10
2010,04,02,05,20,4.10
2010,04,02,05,21,4.10
2010,04,02,05,22,4.10
2010,04,02,05,23,4.10
2010,04,02,05,24,4.10
2010,04,02,05,25,4.10
2010,04,02,05,26,4.10
2010,04,02,05,27,4.10
2010,04,02,05,28,4.10
2010,04,02,05,29,4.10
2010,04,02,05,30,4.10
2010,04,02,05,31,4.10
2010,04,02,05,32,4.10
2010,04,02,05,33,4.10
2010,04,02,05,34,4.10
2010,04,02,05,35,4.20
2010,04,02,05,36,4.20
2010,04,02,05,37,4.20
2010,04,02,05,38,4.20
2010,04,02,05,39,4.20
2010,04,02,05,40,4.20
2010,04,02,05,41,4.30
2010,04,02,05,42,4.30
2010,04,02,05,43,4.30
2010,04,02,05,44,4.30
2010,04,02,05,45,4.30
2010,04,02,05,46,4.30
2010,04,02,05,47,4.30
2010,04,02,05,48,4.30
2010,04,02,05,49,4.30
2010,04,02,05,50,4.30
2010,04,02,05,51,4.30
2010,04,02,05,52,4.30
2010,04,02,05,53,4.30
2010,04,02,05,54,4.30
2010,04,02,05,55,4.30
2010,04,02,05,56,4.30
2010,04,02,05,57,4.30
2010,04,02,05,58,4.30
2010,04,02,05,59,4.30
2010,04,02,06,00,4.30
2010,04,02,06,01,4.30
2010,04,02,06,02,4.30
2010,04,02,06,03,4.30
2010,04,02,06,04,4.30
2010,04,02,06,05,4.30
2010,04,02,06,06,4.30
2010,04,02,06,07,4.30
2010,04,02,06,08,4.30
2010,04,02,06,09,4.30
2010,04,02,06,10,4.30
2010,04,02,06,11,4.30
2010,04,02,06,12,4.30
2010,04,02,06,13,4.30
2010,04,02,06,14,4.30
2010,04,02,06,15,4.30
2010,04,02,06,16,4.30
2010,04,02,06,17,4.30
2010,04,02,06,18,4.30
2010,04,02,06,19,4.30
2010,04,02,06,20,4.30
2010,04,02,06,21,4.30
2010,04,02,06,22,4.30
2010,04,02,06,23,4.30
2010,04,02,06,24,4.30
2010,04,02,06,25,4.30
2010,04,02,06,26,4.30
2010,04,02,06,27,4.30
2010,04,02,06,28,4.30
2010,04,02,06,29,4.30
2010,04,02,06,30,4.30
2010,04,02,06,31,4.30
2010,04,02,06,32,4.30
2010,04,02,06,33,4.30
2010,04,02,06,34,4.40
2010,04,02,06,35,4.40
2010,04,02,06,36,4.40
2010,04,02,06,37,4.40
2010,04,02,06,38,4.40
2010,04,02,06,39,4.40
2010,04,02,06,40,4.40
2010,04,02,06,41,4.40
2010,04,02,06,42,4.40
2010,04,02,06,43,4.40
2010,04,02,06,44,4.40
2010,04,02,06,45,4.40
2010,04,02,06,46,4.40
2010,04,02,06,47,4.30
2010,04,02,06,48,4.30
2010,04,02,06,49,4.30
2010,04,02,06,50,4.30
2010,04,02,06,51,4.30
2010,04,02,06,52,4.30
2010,04,02,06,53,4.30
2010,04,02,06,54,4.30
2010,04,02,06,55,4.30
2010,04,02,06,56,4.30
2010,04,02,06,57,4.30
2010,04,02,06,58,4.30
2010,04,02,06,59,4.30
2010,04,02,07,00,4.30
2010,04,02,07,01,4.30
2010,04,02,07,02,4.30
2010,04,02,07,03,4.30
2010,04,02,07,04,4.30
2010,04,02,07,05,4.30
2010,04,02,07,06,4.30
2010,04,02,07,07,4.30
2010,04,02,07,08,4.30
2010,04,02,07,09,4.30
2010,04,02,07,10,4.30
2010,04,02,07,11,4.30
2010,04,02,07,12,4.30
2010,04,02,07,13,4.30
2010,04,02,07,14,4.30
2010,04,02,07,15,4.30
2010,04,02,07,16,4.30
2010,04,02,07,17,4.30
2010,04,02,07,18,4.30
2010,04,02,07,19,4.30
2010,04,02,07,20,4.30
2010,04,02,07,21,4.30
2010,04,02,07,22,4.30
2010,04,02,07,23,4.30
2010,04,02,07,24,4.30
2010,04,02,07,25,4.30
2010,04,02,07,26,4.30
2010,04,02,07,27,4.30
2010,04,02,07,28,4.30
2010,04,02,07,29,4.30
2010,04,02,07,30,4.30
2010,04,02,07,31,4.30
2010,04,02,07,32,4.30
2010,04,02,07,33,4.20
2010,04,02,07,34,4.20
2010,04,02,07,35,4.20
2010,04,02,07,36,4.20
2010,04,02,07,37,4.20
2010,04,02,07,38,4.20
2010,04,02,07,39,4.20
2010,04,02,07,40,4.20
2010,04,02,07,41,4.20
2010,04,02,07,42,4.20
2010,04,02,07,43,4.20
2010,04,02,07,44,4.20
2010,04,02,07,45,4.20
2010,04,02,07,46,4.20
2010,04,02,07,47,4.30
2010,04,02,07,48,4.30
2010,04,02,07,49,4.30
2010,04,02,07,50,4.30
2010,04,02,07,51,4.30
2010,04,02,07,52,4.30
2010,04,02,07,53,4.30
2010,04,02,07,54,4.30
2010,04,02,07,55,4.30
2010,04,02,07,56,4.30
2010,04,02,07,57,4.30
2010,04,02,07,58,4.30
2010,04,02,07,59,4.30
2010,04,02,08,00,4.30
2010,04,02,08,01,4.30
2010,04,02,08,02,4.30
2010,04,02,08,03,4.30
2010,04,02,08,04,4.30
2010,04,02,08,05,4.30
2010,04,02,08,06,4.20
2010,04,02,08,07,4.20
2010,04,02,08,08,4.20
2010,04,02,08,09,4.20
2010,04,02,08,10,4.20
2010,04,02,08,11,4.10
2010,04,02,08,12,4.10
2010,04,02,08,13,4.00
2010,04,02,08,14,4.00
2010,04,02,08,15,4.00
2010,04,02,08,16,3.90
2010,04,02,08,17,3.90
2010,04,02,08,18,3.80
2010,04,02,08,19,3.80
2010,04,02,08,20,3.80
2010,04,02,08,21,3.80
2010,04,02,08,22,3.70
2010,04,02,08,23,3.70
2010,04,02,08,24,3.70
2010,04,02,08,25,3.70
2010,04,02,08,26,3.60
2010,04,02,08,27,3.60
2010,04,02,08,28,3.60
2010,04,02,08,29,3.60
2010,04,02,08,30,3.60
2010,04,02,08,31,3.50
2010,04,02,08,32,3.50
2010,04,02,08,33,3.50
2010,04,02,08,34,3.50
2010,04,02,08,35,3.50
2010,04,02,08,36,3.40
2010,04,02,08,37,3.40
2010,04,02,08,38,3.40
2010,04,02,11,04,4.20
2010,04,02,11,05,4.20
2010,04,02,11,06,4.20
2010,04,02,11,07,4.20
2010,04,02,11,08,4.30
2010,04,02,11,09,4.30
2010,04,02,11,10,4.30
2010,04,02,11,11,4.40
2010,04,02,11,12,4.40
2010,04,02,11,13,4.40
2010,04,02,11,14,4.50
2010,04,02,11,15,4.60
2010,04,02,13,46,6.90
2010,04,02,13,47,6.90
2010,04,02,13,48,6.90
2010,04,02,13,49,6.90
2010,04,02,13,50,6.90
2010,04,02,13,51,6.90
2010,04,02,13,52,6.90
2010,04,02,13,53,6.90
2010,04,02,13,54,6.90
2010,04,02,13,55,6.90
2010,04,02,13,56,6.90
2010,04,02,13,57,6.90
2010,04,02,13,58,6.90
2010,04,02,13,59,6.90
2010,04,02,14,00,6.90
2010,04,02,14,01,6.80
2010,04,02,14,02,6.80
2010,04,02,14,03,6.80
2010,04,02,14,04,6.80
2010,04,02,14,05,6.80
2010,04,02,14,06,6.80
2010,04,02,14,07,6.80
2010,04,02,14,08,6.80
2010,04,02,14,09,6.80
2010,04,02,14,10,6.80
2010,04,02,14,11,6.80
2010,04,02,14,12,6.70
2010,04,02,14,13,6.70
2010,04,02,14,14,6.70
2010,04,02,14,15,6.70
2010,04,02,14,16,6.70
2010,04,02,14,17,6.70
2010,04,02,14,18,6.70
2010,04,02,14,19,6.70
2010,04,02,14,20,6.70
2010,04,02,14,21,6.60
2010,04,02,14,22,6.60
2010,04,02,14,23,6.60
2010,04,02,14,24,6.60
2010,04,02,14,25,6.60
2010,04,02,14,26,6.60
2010,04,02,14,27,6.60
2010,04,02,14,28,6.50
2010,04,02,14,29,6.50
2010,04,02,14,30,6.40
2010,04,02,14,31,6.40
2010,04,02,14,32,6.40
2010,04,02,14,33,6.40
2010,04,02,14,34,6.30
2010,04,02,14,35,6.30
2010,04,02,14,36,6.30
2010,04,02,14,37,6.20
2010,04,02,14,38,6.20
2010,04,02,14,39,6.20
2010,04,02,14,40,6.10
2010,04,02,14,41,6.10
2010,04,02,14,42,6.10
2010,04,02,14,43,6.10
2010,04,02,14,44,6.10
2010,04,02,14,45,6.10
2010,04,02,14,46,6.10
2010,04,02,14,47,6.10
2010,04,02,14,48,6.00
2010,04,02,14,49,5.80
2010,04,02,14,50,5.80
2010,04,02,14,51,5.70
2010,04,02,14,52,5.60
2010,04,02,14,53,5.60
2010,04,02,14,54,5.50
2010,04,02,14,55,5.50
2010,04,02,14,56,5.40
2010,04,02,14,57,5.30
2010,04,02,14,58,5.30
2010,04,02,14,59,5.30
2010,04,02,15,00,5.20
2010,04,02,15,01,5.20
2010,04,02,15,02,5.20
2010,04,02,15,03,5.20
2010,04,02,15,04,5.10
2010,04,02,15,05,5.10
2010,04,02,15,06,5.10
2010,04,02,15,07,5.10
2010,04,02,15,08,5.10
2010,04,02,15,09,5.00
2010,04,02,15,10,5.00
2010,04,02,15,11,5.00
2010,04,02,15,12,4.90
2010,04,02,15,13,4.90
2010,04,02,15,14,4.80
2010,04,02,15,15,4.80
2010,04,02,15,16,4.70
2010,04,02,15,17,4.70
2010,04,02,15,18,4.70
2010,04,02,15,19,4.70
2010,04,02,15,20,4.70
2010,04,02,15,21,4.70
2010,04,02,15,22,4.70
2010,04,02,15,23,4.70
2010,04,02,15,24,4.70
2010,04,02,15,25,4.60
2010,04,02,15,26,4.60
2010,04,02,15,27,4.60
2010,04,02,15,28,4.60
2010,04,02,15,29,4.60
2010,04,02,15,30,4.60
2010,04,02,15,31,4.60
2010,04,02,15,32,4.60
2010,04,02,15,33,4.70
2010,04,02,15,34,4.70
2010,04,02,15,35,4.60
2010,04,02,15,36,4.60
2010,04,02,15,37,4.60
2010,04,02,15,38,4.60
2010,04,02,15,39,4.60
2010,04,02,15,40,4.60
2010,04,02,15,41,4.60
2010,04,02,15,42,4.60
2010,04,02,15,43,4.60
2010,04,02,15,44,4.60
2010,04,02,15,45,4.60
2010,04,02,15,46,4.60
2010,04,02,15,47,4.60
2010,04,02,15,48,4.60
2010,04,02,15,49,4.60
2010,04,02,15,50,4.60
2010,04,02,15,51,4.60
2010,04,02,15,52,4.60
2010,04,02,15,53,4.60
2010,04,02,15,54,4.70
2010,04,02,15,55,4.70
2010,04,02,15,56,4.70
2010,04,02,15,57,4.70
2010,04,02,15,58,4.80
2010,04,02,15,59,4.80
2010,04,02,16,00,4.90
2010,04,02,16,01,4.90
2010,04,02,16,02,5.00
2010,04,02,16,03,5.10
2010,04,02,16,04,5.10
2010,04,02,16,05,5.20
2010,04,02,16,06,5.20
2010,04,02,16,07,5.20
2010,04,02,16,08,5.20
2010,04,02,16,09,5.20
2010,04,02,16,10,5.20
2010,04,02,16,11,5.20
2010,04,02,16,12,5.30
2010,04,02,16,13,5.30
2010,04,02,16,14,5.30
2010,04,02,16,15,5.30
2010,04,02,16,16,5.30
2010,04,02,16,17,5.30
2010,04,02,16,18,5.30
2010,04,02,16,19,5.30
2010,04,02,16,20,5.30
2010,04,02,16,21,5.30
2010,04,02,16,22,5.30
2010,04,02,16,23,5.30
2010,04,02,16,24,5.30
2010,04,02,16,25,5.30
2010,04,02,16,26,5.30
2010,04,02,16,27,5.30
2010,04,02,16,28,5.30
2010,04,02,16,29,5.30
2010,04,02,16,30,5.30
2010,04,02,16,31,5.30
2010,04,02,16,32,5.30
2010,04,02,16,33,5.30
2010,04,02,16,34,5.30
2010,04,02,16,35,5.30
2010,04,02,16,36,5.30
2010,04,02,16,37,5.30
2010,04,02,16,38,5.30
2010,04,02,16,39,5.30
2010,04,02,16,40,5.30
2010,04,02,16,41,5.30
2010,04,02,16,42,5.20
2010,04,02,16,43,5.20
2010,04,02,16,44,5.20
2010,04,02,16,45,5.20
2010,04,02,16,46,5.20
2010,04,02,16,47,5.20
2010,04,02,16,48,5.20
2010,04,02,16,49,5.20
2010,04,02,16,50,5.20
2010,04,02,16,51,5.10
2010,04,02,16,52,5.10
2010,04,02,16,53,5.10
2010,04,02,16,54,5.10
2010,04,02,16,55,5.10
2010,04,02,16,56,5.10
2010,04,02,16,57,5.10
2010,04,02,16,58,5.10
2010,04,02,16,59,5.10
2010,04,02,17,00,5.10
2010,04,02,17,01,5.10
2010,04,02,17,02,5.10
2010,04,02,17,03,5.10
2010,04,02,17,04,5.10
2010,04,02,17,05,5.20
2010,04,02,17,06,5.20
2010,04,02,17,07,5.10
2010,04,02,17,08,5.10
2010,04,02,17,09,5.10
2010,04,02,17,10,5.10
2010,04,02,17,11,5.10
